Location: Antoign�
(47.0844°N, 0.1131°W)
Time: 01:53:39
(UTC+00:00)

Meteor 2-20 - Pass Details

Date: 03 March 2021
Orbit: 940 x 958 km, 82.5° (Epoch: 16 April)

Event Time Altitude Azimuth Distance (km) Brightness Sun altitude
Rises 20:28:32 0° 349° (N) 3,623 7.9 -27.5°
Reaches altitude 10° 20:31:02 10° 348° (NNW) 2,676 7.2 -27.9°
Maximum altitude 20:37:09 77° 264° (W) 976 4.5 -28.9°
Enters shadow 20:38:14 61° 198° (SSW) 1,071 4.6 -29.0°
